Location: Zapote
(9.9191°N, 84.0597°W)
Time: 04:46:41
(UTC-06:00)

Envisat - Pass Details

Date: 25 January 2021
Orbit: 764 x 766 km, 98.1° (Epoch: 09 March)

Event Time Altitude Azimuth Distance (km) Brightness Sun altitude
Rises 05:23:57 0° 2° (N) 3,219 6.1 -9.0°
Reaches altitude 10° 05:26:19 10° 357° (N) 2,293 5.3 -8.4°
Maximum altitude 05:31:10 48° 283° (WNW) 988 3.2 -7.3°
Drops below altitude 10° 05:36:01 10° 209° (SSW) 2,294 5.4 -6.1°
Sets 05:38:24 0° 204° (SSW) 3,219 6.2 -5.6°
